• Join FlightAware (Why Join?)
  • Login
  • US Flag 
01:11AM EST


 

Airport Tracker/Info


-or-


 

Live Flight TrackerFlight Track Log ✈ EJA328 ✈ 21-Mar-2014 ✈ KHOU - KAUS

Flight Track Log - Related Links

Times and Time Zones

All times are in EDT time to prevent confusion due to time zone crossing. See the EJA328 flight status page for this flight to view local times or setup timezone preferences in your user account.

Time Position Orientation Groundspeed Altitude Reporting Facility
EDT Latitude Longitude Course Direction KTS MPH feet Rate Location/Type
02:22PM 29.6308 -95.2847 291° West 132 152 1,000  Level Houston Center
02:22PM 29.6250 -95.2896 225° Southwest 178 205 1,200 1,846 Climbing FlightAware ADS-B (KHOU)
02:23PM 29.6224 -95.2934 235° Southwest 190 219 1,400 2,571 Climbing FlightAware ADS-B (KHOU)
02:23PM 29.6150 -95.3070 239° Southwest 202 232 2,100 2,526 Climbing FlightAware ADS-B (KHOU)
02:23PM 29.6142 -95.3086 231° Southwest 205 236 2,200 2,800 Climbing Houston Center
02:23PM 29.6082 -95.3207 247° West 213 245 2,800 3,375 Climbing FlightAware ADS-B (KHOU)
02:23PM 29.6063 -95.3268 254° West 217 250 3,100 3,158 Climbing FlightAware ADS-B (KHOU)
02:23PM 29.6028 -95.3440 258° West 229 264 3,800 3,000 Climbing FlightAware ADS-B (KHOU)
02:24PM 29.5992 -95.3617 257° West 229 264 4,600 1,929 Climbing FlightAware ADS-B (KHOU)
02:24PM 29.5992 -95.3622 252° West 236 272 4,700 4,000 Climbing Houston Center
02:24PM 29.5954 -95.3790 256° West 222 255 5,600 20,000 Climbing FlightAware ADS-B (KHOU)
02:24PM 29.5969 -95.3731 257° West 236 272 5,700 2,400 Climbing Houston Center
02:24PM 29.5933 -95.3910 265° West 230 265 6,000 2,000 Climbing FlightAware ADS-B (KHOU)
02:24PM 29.5934 -95.3971 276° West 235 270 6,200 2,667 Climbing FlightAware ADS-B (KHOU)
02:24PM 29.5946 -95.4034 284° West 242 278 6,400 2,400 Climbing FlightAware ADS-B (KHOU)
02:24PM 29.5968 -95.4095 294° West 250 288 6,600 3,273 Climbing FlightAware ADS-B (KHOU)
02:24PM 29.5996 -95.4154 300° West 252 290 7,000 4,800 Climbing FlightAware ADS-B (KHOU)
02:24PM 29.6019 -95.4200 300° West 250 288 7,400 4,714 Climbing FlightAware ADS-B (KHOU)
02:25PM 29.6028 -95.4216 300° West 249 287 8,100 1,920 Climbing FlightAware ADS-B (KHOU)
02:25PM 29.6086 -95.4333 283° West 248 285 8,200 964 Climbing Houston Center
02:27PM 29.6434 -95.5707 295° West  Level Estimated
02:28PM 29.6651 -95.6506 291° West  Level Estimated
02:31PM 29.8463 -95.9998 286° West 364 419 13,900  Level FlightAware ADS-B (KHOU)
02:31PM 29.8586 -96.0539 285° West 364 419 13,900  Level FlightAware ADS-B (KHOU)
02:32PM 29.8719 -96.1115 286° West 365 420 13,900  Level FlightAware ADS-B (KHOU)
02:32PM 29.8852 -96.1681 286° West 365 420 13,900  Level FlightAware ADS-B (KHOU)
02:33PM 29.8986 -96.2247 286° West 366 421 13,900  Level FlightAware ADS-B (KHOU)
02:33PM 29.9120 -96.2812 286° West 366 421 13,900  Level FlightAware ADS-B (KHOU)
02:34PM 29.9252 -96.3375 286° West 366 421 13,900  Level FlightAware ADS-B (KHOU)
02:34PM 29.9384 -96.3934 286° West 366 421 13,900  Level FlightAware ADS-B (KHOU)
02:35PM 29.9517 -96.4502 286° West 366 421 13,900  Level FlightAware ADS-B (KHOU)
02:35PM 29.9649 -96.5065 286° West 366 421 13,900  Level FlightAware ADS-B (KHOU)
02:36PM 29.9781 -96.5631 286° West 366 421 13,900  Level FlightAware ADS-B (KHOU)
02:36PM 29.9913 -96.6195 286° West 366 421 13,900 75 Level FlightAware ADS-B (KHOU)
02:37PM 30.0128 -96.7119 285° West 364 419 14,000 -143 Climbing FlightAware ADS-B (KHOU)
02:38PM 30.0278 -96.7764 286° West 365 420 13,700 -1,292 Descending FlightAware ADS-B (KHOU)
02:38PM 30.0407 -96.8324 285° West 340 391 12,600 -1,839 Descending FlightAware ADS-B (KHOU)
02:39PM 30.0523 -96.8820 286° West 302 348 11,800 -1,770 Descending FlightAware ADS-B (KHOU)
02:39PM 30.0660 -96.9267 291° West 283 326 10,800 -2,327 Descending FlightAware ADS-B (KHOU)
02:39PM 30.0743 -96.9533 290° West 280 322 9,900 -2,571 Descending FlightAware ADS-B (KHOU)
02:40PM 30.0800 -96.9720 290° West 277 319 9,300 -2,516 Descending FlightAware ADS-B (KHOU)
02:40PM 30.0874 -96.9964 290° West 274 315 8,600 -2,298 Descending FlightAware ADS-B (KHOU)
02:40PM 30.0981 -97.0308 290° West 279 321 7,500 -835 Descending Houston Center
02:46PM 30.3020 -97.4992 281° West 196 226 3,100 -732 Descending FlightAware ADS-B
02:47PM 30.3062 -97.5214 282° West 194 223 2,800 -493 Descending FlightAware ADS-B
02:48PM 30.3136 -97.5636 282° West 198 228 2,500 -425 Descending Houston Center
02:49PM 30.3158 -97.6219 273° West 189 217 2,000 -387 Descending Houston Center
02:50PM 30.2900 -97.6558 229° Southwest 156 180 1,700 -290 Descending Houston Center
02:51PM 30.2492 -97.6575 182° South 147 169 1,400 -387 Descending Houston Center
02:52PM 30.2139 -97.6561 178° South 132 152 900 -484 Descending Houston Center